Tracking 32139 objects as of 18-Nov-2025
HD Live streaming from Space Station
objects crossing your sky now

STARLINK-35204

Track STARLINK-35204 now!
10-day predictions
STARLINK-35204 is classified as:


NORAD ID: 65694
Int'l Code: 2025-212U
Perigee: 481.8 km
Apogee: 483.0 km
Inclination: 53.2 °
Period: 94.1 minutes
Semi major axis: 6853 km
RCS: Unknown
Launch date: September 21, 2025
Source: United States (US)
Launch site: AIR FORCE WESTERN TEST RANGE (AFWTR)
Your satellite tracking list
Your tracking list is empty




NASA's NSSDC Master Catalog

Two Line Element Set (TLE):
1 65694U 25212U   25321.81416378  .00020461  00000-0  70104-3 0  9991
2 65694  53.1573 145.4139 0000876  82.5508 277.5593 15.30201030 10129
Source of the keplerian elements: AFSPC